Location: Highridge
(54.0333°N, 114.1333°W)
Time: 13:07:15
(UTC+00:00)

Oscar 19 - Pass Details

Date: 01 December 2023
Orbit: 771 x 789 km, 98.9° (Epoch: 01 March)

Event Time Altitude Azimuth Distance (km) Brightness Sun altitude
Rises 23:52:53 0° 186° (S) 3,236 14.4 -5.0°
Reaches altitude 10° 23:55:20 10° 194° (SSW) 2,313 13.8 -5.3°
Maximum altitude 00:00:04 38° 263° (W) 1,161 12.3 -5.9°
Drops below altitude 10° 00:04:52 10° 331° (NNW) 2,331 13.1 -6.5°
Sets 00:07:21 0° 340° (NNW) 3,265 13.8 -6.8°
